TimePDT,TemperatureF,Dew PointF,Humidity,Sea Level PressureIn,VisibilityMPH,Wind Direction,Wind SpeedMPH,Gust SpeedMPH,PrecipitationIn,Events,Conditions,WindDirDegrees,DateUTC
12:56 AM,69.1,39.9,35,29.73,10.0,WSW,19.6,-,N/A,,Clear,250,2013-04-30 07:56:00
1:56 AM,69.1,39.9,35,29.71,10.0,WSW,17.3,-,N/A,,Clear,250,2013-04-30 08:56:00
2:56 AM,68.0,42.1,39,29.71,10.0,SW,15.0,-,N/A,,Clear,230,2013-04-30 09:56:00
3:56 AM,66.9,41.0,39,29.70,10.0,WSW,17.3,20.7,N/A,,Clear,240,2013-04-30 10:56:00
4:56 AM,66.9,37.9,34,29.70,10.0,WSW,16.1,-,N/A,,Clear,240,2013-04-30 11:56:00
5:56 AM,66.9,36.0,32,29.70,10.0,WSW,18.4,24.2,N/A,,Clear,250,2013-04-30 12:56:00
6:56 AM,69.1,33.1,26,29.71,10.0,WSW,17.3,-,N/A,,Clear,250,2013-04-30 13:56:00
7:56 AM,73.9,34.0,23,29.71,10.0,WSW,23.0,27.6,N/A,,Clear,250,2013-04-30 14:56:00
8:56 AM,75.9,35.1,23,29.72,10.0,WSW,23.0,-,N/A,,Clear,250,2013-04-30 15:56:00
9:56 AM,79.0,35.1,20,29.71,10.0,West,27.6,33.4,N/A,,Clear,260,2013-04-30 16:56:00
10:56 AM,82.0,37.0,20,29.72,10.0,West,25.3,32.2,N/A,,Clear,260,2013-04-30 17:56:00
11:56 AM,82.9,39.0,21,29.70,10.0,WSW,29.9,36.8,N/A,,Clear,250,2013-04-30 18:56:00
12:56 PM,84.0,39.0,20,29.70,10.0,WSW,27.6,36.8,N/A,,Clear,250,2013-04-30 19:56:00
1:56 PM,86.0,37.0,18,29.69,10.0,WSW,21.9,31.1,N/A,,Clear,240,2013-04-30 20:56:00
2:56 PM,82.9,44.1,25,29.69,10.0,SW,24.2,31.1,N/A,,Clear,220,2013-04-30 21:56:00
3:56 PM,81.0,45.0,28,29.69,10.0,WSW,21.9,31.1,N/A,,Clear,240,2013-04-30 22:56:00
4:56 PM,78.1,46.0,32,29.70,10.0,WSW,23.0,32.2,N/A,,Clear,240,2013-04-30 23:56:00
5:56 PM,75.0,46.9,37,29.71,10.0,WSW,20.7,29.9,N/A,,Clear,240,2013-05-01 00:56:00
6:56 PM,69.1,46.9,45,29.72,10.0,SW,19.6,26.5,N/A,,Clear,230,2013-05-01 01:56:00
7:56 PM,64.9,46.9,52,29.72,10.0,WSW,19.6,25.3,N/A,,Clear,240,2013-05-01 02:56:00
8:56 PM,64.0,45.0,50,29.75,10.0,WSW,19.6,35.7,N/A,,Clear,240,2013-05-01 03:56:00
9:56 PM,62.1,45.0,53,29.76,10.0,SW,19.6,26.5,N/A,,Clear,230,2013-05-01 04:56:00
10:56 PM,63.0,43.0,48,29.76,10.0,WSW,19.6,26.5,N/A,,Clear,240,2013-05-01 05:56:00
11:56 PM,62.1,41.0,46,29.77,10.0,WSW,18.4,26.5,N/A,,Clear,240,2013-05-01 06:56:00